Location: Smoky Mountain Stargaze
(35.4252°N, 83.3329°W)
Time: 17:59:38
(UTC-04:00)

Amateur Radio Satellites - All Passes

Search period start: 21 August 2014 17:29
Search period end: 22 August 2014 17:29
Location: Smoky Mountain Stargaze, 35.4252°N, 83.3329°W

Satellite Date Start Highest point End Downlink Frequencies (MHz)
Time Altitude Azimuth
Hamsat 21 Aug 17:34:21 17:35:40 11° 65° (ENE) 17:36:59 145.90 MHz
Uosat F 21 Aug 17:45:12 17:49:49 37° 261° (W) 17:54:28 435.120 FM
UOSAT-12 21 Aug 17:53:22 17:58:03 63° 59° (ENE) 18:02:39 437.025 FM, 437.400 FM
PANSAT 21 Aug 18:09:17 18:12:30 25° 172° (S) 18:15:43 not established
PCSat 21 Aug 18:18:22 18:18:40 10° 102° (ESE) 18:18:58 145.825 MHz
OPAL 21 Aug 18:33:20 18:38:20 48° 290° (WNW) 18:43:19 ?
JAS-2 21 Aug 18:52:16 18:59:13 84° 76° (ENE) 19:05:20 435.800 - 435.900 CW/SSB, 435.910 FM
SO-67 21 Aug 19:06:14 19:08:07 14° 70° (ENE) 19:10:01 435.3500 MHz FM
Hamsat 21 Aug 19:06:56 19:11:06 54° 260° (W) 19:15:20 145.90 MHz
AO-7 21 Aug 19:09:38 19:13:22 14° 269° (W) 19:17:07 29.400 - 29.500 MHz
RS-15 21 Aug 19:13:55 19:25:00 68° 58° (ENE) 19:36:30 29.354 - 29.394 USB, Beacon 29.352 USB
Sapphire 21 Aug 19:25:37 19:30:45 47° 111° (ESE) 19:35:56 437.095 MHz 1200 baud AX-25 AFSK
UOSAT-12 21 Aug 19:35:55 19:37:36 12° 253° (WSW) 19:39:17 437.025 FM, 437.400 FM
PANSAT 21 Aug 19:48:58 19:52:15 27° 185° (S) 19:55:32 not established
PCSat 21 Aug 19:55:53 20:01:17 83° 296° (WNW) 20:06:44 145.825 MHz
STRAND 1 21 Aug 20:00:29 20:05:25 48° 100° (E) 20:10:19 ?
HO-68 21 Aug 20:19:27 20:24:10 19° 59° (ENE) 20:28:54 435.675 MHz FM
SO-67 21 Aug 20:38:00 20:40:55 25° 263° (W) 20:43:52 435.3500 MHz FM
JAS-2 21 Aug 20:41:50 20:44:36 13° 267° (W) 20:47:15 435.800 - 435.900 CW/SSB, 435.910 FM
ISS 21 Aug 21:09:26 21:12:16 25° 33° (NNE) 21:15:05 145.800 FM
Sapphire 21 Aug 21:10:15 21:14:23 22° 308° (NW) 21:18:34 437.095 MHz 1200 baud AX-25 AFSK
RS-15 21 Aug 21:27:26 21:36:29 30° 256° (WSW) 21:45:53 29.354 - 29.394 USB, Beacon 29.352 USB
PANSAT 21 Aug 21:29:38 21:31:55 15° 198° (SSW) 21:34:12 not established
STRAND 1 21 Aug 21:40:54 21:44:11 18° 295° (WNW) 21:47:28 ?
PCSat 21 Aug 21:43:32 21:45:31 12° 314° (NW) 21:47:30 145.825 MHz
UKube-1 21 Aug 21:44:08 21:48:10 38° 72° (ENE) 21:52:12 145.840 MHz, 145.915 MHz
Oscar 11 21 Aug 22:01:04 22:04:55 33° 72° (ENE) 22:08:48 145.825 FM, Beacon 2401.500 USB
FUNcube-1 21 Aug 22:02:09 22:03:22 11° 66° (ENE) 22:04:36 145.950 - 145.970 MHz USB
HO-68 21 Aug 22:03:58 22:11:06 74° 256° (WSW) 22:18:16 435.675 MHz FM
Oscar 10/S400 21 Aug 22:40:58 23:04:39 73° 175° (S) 08:28:49 145.825 - 145.975 CW/USB, Beacon 145.810 USB
ISS 21 Aug 22:46:02 22:48:58 29° 229° (SW) 22:51:54 145.800 FM
UKube-1 21 Aug 23:21:54 23:24:29 15° 266° (W) 23:27:05 145.840 MHz, 145.915 MHz
FUNcube-1 21 Aug 23:35:16 23:39:17 50° 260° (W) 23:43:21 145.950 - 145.970 MHz USB
Oscar 11 21 Aug 23:38:15 23:41:09 18° 266° (W) 23:44:05 145.825 FM, Beacon 2401.500 USB
KITSAT 1 22 Aug 00:22:24 00:26:41 15° 101° (E) 00:30:58 435.175 FM
MaSat-1 22 Aug 00:49:45 00:52:27 15° 51° (NE) 00:54:59 437.345 MHz
Saudisat 1A 22 Aug 01:24:59 01:29:14 52° 116° (ESE) 01:33:32 436.775 MHz
Oscar 19 22 Aug 01:52:47 01:55:04 13° 92° (E) 01:57:22 437.125 CW, 437.150 USB
KITSAT 1 22 Aug 02:12:52 02:20:58 89° 297° (WNW) 02:29:07 435.175 FM
Oscar 16 22 Aug 02:24:02 02:28:32 29° 97° (E) 02:33:01 437.025 USB, Beacon 2401.1428
MaSat-1 22 Aug 02:25:27 02:30:03 54° 251° (WSW) 02:34:03 437.345 MHz
AO-27 22 Aug 02:29:18 02:31:27 13° 92° (E) 02:33:36 436.795 MHz FM
Saudisat 1A 22 Aug 03:06:22 03:09:07 16° 312° (NW) 03:11:52 436.775 MHz
Oscar 19 22 Aug 03:29:38 03:34:47 63° 286° (WNW) 03:39:54 437.125 CW, 437.150 USB
AO-Echo 22 Aug 03:35:16 03:39:59 69° 102° (ESE) 03:44:38 ?
Gurwin Techsat 1B 22 Aug 03:39:36 03:44:10 29° 96° (E) 03:48:41 435.225 FM
ITAMSAT 1 22 Aug 03:39:46 03:44:56 69° 102° (ESE) 03:50:04 435.822 SSB
JAS-1B 22 Aug 03:45:14 03:52:23 59° 100° (E) 03:58:25 435.800 - 435.900 CW/SSB
Uribyol 2 22 Aug 03:52:16 03:57:28 84° 284° (WNW) 04:02:39 436.500 FM
Oscar 16 22 Aug 04:03:21 04:07:46 29° 291° (WNW) 04:12:10 437.025 USB, Beacon 2401.1428
AO-27 22 Aug 04:06:13 04:11:21 64° 286° (WNW) 04:16:27 436.795 MHz FM
OPAL 22 Aug 04:07:50 04:11:42 23° 65° (ENE) 04:15:35 ?
KITSAT 1 22 Aug 04:11:44 04:17:28 21° 317° (NW) 04:23:13 435.175 FM
Sapphire 22 Aug 04:17:12 04:21:20 22° 52° (NE) 04:25:26 437.095 MHz 1200 baud AX-25 AFSK
TMSAT-1 22 Aug 04:37:00 04:42:19 78° 103° (ESE) 04:47:35 436.925 FM
PCSat 22 Aug 04:47:06 04:52:12 41° 58° (ENE) 04:57:17 145.825 MHz
AO-7 22 Aug 05:16:46 05:24:27 40° 100° (E) 05:32:04 29.400 - 29.500 MHz
AO-Echo 22 Aug 05:17:08 05:18:07 11° 297° (WNW) 05:19:07 ?
Gurwin Techsat 1B 22 Aug 05:19:27 05:24:02 30° 291° (WNW) 05:28:36 435.225 FM
ITAMSAT 1 22 Aug 05:21:31 05:23:48 13° 297° (WNW) 05:26:05 435.822 SSB
JAS-1B 22 Aug 05:37:01 05:42:11 21° 301° (WNW) 05:46:50 435.800 - 435.900 CW/SSB
OPAL 22 Aug 05:45:45 05:50:19 36° 260° (W) 05:54:58 ?
Uosat F 22 Aug 05:55:30 06:00:32 86° 104° (ESE) 06:05:31 435.120 FM
Sapphire 22 Aug 05:59:47 06:05:00 49° 249° (WSW) 06:10:11 437.095 MHz 1200 baud AX-25 AFSK
TMSAT-1 22 Aug 06:19:38 06:21:31 12° 298° (WNW) 06:23:23 436.925 FM
PCSat 22 Aug 06:31:06 06:35:19 23° 254° (WSW) 06:39:31 145.825 MHz
SO-50 22 Aug 06:48:54 06:53:21 85° 300° (WNW) 06:57:55 436.795 FM
Hamsat 22 Aug 06:55:56 06:59:52 32° 97° (E) 07:03:45 145.90 MHz
AO-7 22 Aug 07:09:34 07:17:07 41° 296° (WNW) 07:24:39 29.400 - 29.500 MHz
STRAND 1 22 Aug 07:13:24 07:18:21 51° 73° (ENE) 07:23:17 ?
JAS-2 22 Aug 07:49:49 07:55:00 84° 284° (WNW) 08:00:23 435.800 - 435.900 CW/SSB, 435.910 FM
UOSAT-12 22 Aug 08:01:46 08:06:00 38° 114° (ESE) 08:10:19 437.025 FM, 437.400 FM
SO-67 22 Aug 08:04:38 08:07:30 24° 96° (E) 08:10:21 435.3500 MHz FM
Hamsat 22 Aug 08:32:31 08:35:34 19° 291° (WNW) 08:38:37 145.90 MHz
SO-50 22 Aug 08:34:20 08:34:38 10° 318° (NW) 08:34:56 436.795 FM
STRAND 1 22 Aug 08:54:48 08:57:47 16° 267° (W) 09:00:46 ?
RS-15 22 Aug 09:33:13 09:44:05 60° 112° (ESE) 09:54:41 29.354 - 29.394 USB, Beacon 29.352 USB
HO-68 22 Aug 09:35:59 09:41:39 25° 95° (E) 09:47:18 435.675 MHz FM
SO-67 22 Aug 09:38:18 09:40:20 15° 290° (WNW) 09:42:21 435.3500 MHz FM
UOSAT-12 22 Aug 09:42:39 09:46:15 22° 310° (NW) 09:49:55 437.025 FM, 437.400 FM
Saudisat 1A 22 Aug 09:55:17 09:58:28 19° 50° (NE) 10:01:37 436.775 MHz
KITSAT 1 22 Aug 10:10:13 10:16:56 28° 48° (NE) 10:23:36 435.175 FM
UKube-1 22 Aug 11:11:10 11:15:29 72° 285° (WNW) 11:19:48 145.840 MHz, 145.915 MHz
HO-68 22 Aug 11:22:42 11:29:36 54° 291° (WNW) 11:36:29 435.675 MHz FM
FUNcube-1 22 Aug 11:27:06 11:31:14 37° 98° (E) 11:35:26 145.950 - 145.970 MHz USB
Oscar 11 22 Aug 11:27:14 11:31:37 78° 283° (WNW) 11:35:58 145.825 FM, Beacon 2401.500 USB
Saudisat 1A 22 Aug 11:34:03 11:38:11 40° 246° (WSW) 11:42:18 436.775 MHz
RS-15 22 Aug 11:46:50 11:56:50 38° 313° (NW) 12:06:48 29.354 - 29.394 USB, Beacon 29.352 USB
KITSAT 1 22 Aug 12:04:54 12:12:52 66° 247° (WSW) 12:20:47 435.175 FM
FUNcube-1 22 Aug 13:04:22 13:07:20 18° 292° (WNW) 13:10:21 145.950 - 145.970 MHz USB
Oscar 19 22 Aug 13:06:56 13:09:43 15° 64° (ENE) 13:12:31 437.125 CW, 437.150 USB
Uribyol 2 22 Aug 13:31:47 13:33:30 12° 62° (ENE) 13:35:13 436.500 FM
Oscar 16 22 Aug 13:38:09 13:42:38 32° 69° (ENE) 13:47:09 437.025 USB, Beacon 2401.1428
AO-27 22 Aug 13:44:30 13:47:28 16° 64° (ENE) 13:50:27 436.795 MHz FM
ISS 22 Aug 13:49:34 13:52:39 37° 133° (SE) 13:55:46 145.800 FM
RS-15 22 Aug 14:09:05 14:13:46 13° 346° (NNW) 14:18:29 29.354 - 29.394 USB, Beacon 29.352 USB
JAS-1B 22 Aug 14:22:38 14:31:53 47° 68° (ENE) 14:40:44 435.800 - 435.900 CW/SSB
MaSat-1 22 Aug 14:38:31 14:38:34 10° 97° (E) 14:38:38 437.345 MHz
Oscar 19 22 Aug 14:43:27 14:48:30 59° 259° (W) 14:53:37 437.125 CW, 437.150 USB
AO-Echo 22 Aug 14:44:43 14:49:52 66° 75° (ENE) 14:54:53 ?
ITAMSAT 1 22 Aug 14:54:43 14:59:53 76° 75° (ENE) 15:05:04 435.822 SSB
Gurwin Techsat 1B 22 Aug 14:57:44 15:02:28 34° 70° (ENE) 15:07:12 435.225 FM
Uribyol 2 22 Aug 15:07:08 15:12:17 76° 257° (WSW) 15:17:28 436.500 FM
Oscar 16 22 Aug 15:17:42 15:21:56 26° 264° (W) 15:26:13 437.025 USB, Beacon 2401.1428
AO-27 22 Aug 15:21:22 15:26:28 57° 259° (W) 15:31:35 436.795 MHz FM
SO-50 22 Aug 15:23:26 15:27:55 38° 55° (NE) 15:32:25 436.795 FM
ISS 22 Aug 15:26:53 15:29:29 21° 328° (NNW) 15:32:04 145.800 FM
TMSAT-1 22 Aug 15:54:41 15:59:58 88° 76° (ENE) 16:05:17 436.925 FM
PANSAT 22 Aug 16:05:50 16:07:49 14° 161° (SSE) 16:09:48 not established
MaSat-1 22 Aug 16:10:12 16:14:48 74° 294° (WNW) 16:19:54 437.345 MHz
AO-7 22 Aug 16:12:22 16:20:04 43° 64° (ENE) 16:27:44 29.400 - 29.500 MHz
JAS-1B 22 Aug 16:12:56 16:22:09 44° 263° (W) 16:31:11 435.800 - 435.900 CW/SSB
RS-15 22 Aug 16:26:35 16:33:04 17° 25° (NNE) 16:39:37 29.354 - 29.394 USB, Beacon 29.352 USB
AO-Echo 22 Aug 16:27:00 16:28:57 12° 268° (W) 16:30:54 ?
UOSAT-12 22 Aug 16:34:59 16:38:05 17° 47° (NE) 16:41:10 437.025 FM, 437.400 FM
Gurwin Techsat 1B 22 Aug 16:38:05 16:42:25 25° 264° (W) 16:46:46 435.225 FM
ITAMSAT 1 22 Aug 16:39:31 16:39:52 10° 269° (W) 16:40:12 435.822 SSB
SO-50 22 Aug 17:04:34 17:08:14 22° 250° (WSW) 17:11:55 436.795 FM
Uosat F 22 Aug 17:05:39 17:10:40 86° 76° (ENE) 17:15:42 435.120 FM
